This is the latest recevied weather packets stored in our database for station/object KC9EGS. If no packets are shown the sender has not sent any weather packets the latest 10 day(s).
| Time | Temp. | Humidity | Pressure | Rain* | Wind** | Luminosity | Snow |
|---|---|---|---|---|---|---|---|
| 1777926922 | 16.67° C | 35% | 989.7 hPa | 0 mm | - | - | - |
| 1777926316 | 16.67° C | 34% | 989.7 hPa | 0 mm | - | - | - |
| 1777925720 | 16.67° C | 33% | 989.7 hPa | 0 mm | - | - | - |
| 1777925415 | 16.67° C | 35% | 989.7 hPa | 0 mm | - | - | - |
| 1777925121 | 16.67° C | 31% | 989.7 hPa | 0 mm | - | - | - |
| 1777924515 | 16.67° C | 32% | 989.3 hPa | 0 mm | - | - | - |
| 1777923922 | 16.67° C | 32% | 989.3 hPa | 0 mm | - | - | - |
| 1777923615 | 17.22° C | 31% | 989.5 hPa | 0 mm | - | - | - |
| 1777922717 | 17.22° C | 30% | 989.1 hPa | 0 mm | - | - | - |
| 1777922122 | 17.22° C | 27% | 989.1 hPa | 0 mm | - | - | - |
| 1777921815 | 17.78° C | 26% | 988.8 hPa | 0 mm | - | - | - |
| 1777921521 | 17.78° C | 27% | 988.8 hPa | 0 mm | - | - | - |
| 1777920914 | 18.33° C | 27% | 988.7 hPa | 0 mm | - | - | - |
| 1777920320 | 18.33° C | 26% | 988.7 hPa | 0 mm | - | - | - |
| 1777920016 | 18.33° C | 27% | 988.8 hPa | 0 mm | - | - | - |
| 1777919721 | 18.33° C | 28% | 988.8 hPa | 0 mm | - | - | - |
| 1777919115 | 18.33° C | 26% | 988.7 hPa | 0 mm | - | - | - |
| 1777918521 | 18.33° C | 23% | 988.7 hPa | 0 mm | - | - | - |
| 1777918216 | 17.78° C | 23% | 989 hPa | 0 mm | - | - | - |
| 1777917921 | 18.33° C | 23% | 989 hPa | 0 mm | - | - | - |
| 1777917317 | 18.89° C | 22% | 988.4 hPa | 0 mm | - | - | - |
| 1777916721 | 18.89° C | 25% | 988.4 hPa | 0 mm | - | - | - |
| 1777916416 | 18.89° C | 27% | 988.4 hPa | 0 mm | - | - | - |
| 1777916120 | 18.89° C | 27% | 988.4 hPa | 0 mm | - | - | - |
| 1777915514 | 18.33° C | 28% | 988.3 hPa | 0 mm | - | - | - |
* Rain latest hour (hover to see other rain measurements)
** Current wind speed in m/s (hover to see current wind gust speed)